Weather History for KCLE - December, 2012

Change the Weather History Date:

Thursday, December 6, 2012

  Actual Average Record
Temperature  
Mean Temperature 35 °F 36 °F  
Max Temperature 43 °F 41 °F 70 °F (1998)
Min Temperature 27 °F 30 °F 7 °F (2005)
Degree Days  
Heating Degree Days 30 30  
Month to date heating degree days 110 171  
Since 1 July heating degree days 1355 1266  
Cooling Degree Days 0 0  
Month to date cooling degree days 0 0  
Year to date cooling degree days 1096 817  
Moisture  
Dew Point 26 °F    
Average Humidity 69    
Maximum Humidity 85    
Minimum Humidity 53    
Precipitation  
Precipitation 0.00 in 0.11 in - ()
Month to date precipitation 0.97 0.63  
Year to date precipitation 41.66 36.67  
Snow  
Snow 0.00 in 0.40 in - ()
Month to date snowfall 0.0 2.0  
Since 1 July snowfall 0.3 6.5  
Snow Depth 0.00 in    
Sea Level Pressure  
Sea Level Pressure 30.23 in    
Wind  
Wind Speed 5 mph (SSE)    
Max Wind Speed 15 mph    
Max Gust Speed 18 mph    
Visibility 10 miles    
Events      
T = Trace of Precipitation, MM = Missing Value Source: NWS Daily Summary

Daily Weather History Graph

Daily Weather History Graph

Search for Another Location

Airport or City:

Trip Planner

Search our weather history database for the weather conditions in past years. The results will help you decide how hot, cold, wet, or windy it might be!

Date:

Astronomy

Dec. 06, 2012 Rise Set
Actual Time 7:39 AM EST 4:57 PM EST
Civil Twilight 7:08 AM EST 5:28 PM EST
Nautical Twilight 6:33 AM EST 6:03 PM EST
Astronomical Twilight 6:00 AM EST 6:36 PM EST
Moon No Moon Rise 12:27 PM EST (12/6)
Length of Visible Light 10h 20m
Length of Day
9h 18m
Waning Gibbous, 49% of the Moon is Illuminated
Dec 6
Waning Gibbous
Dec 13
New
Dec 20
First Quarter
Dec 28
Full
Jan 4
Last Quarter

Hourly Weather History & Observations

Time (EST) Temp. Windchill Dew Point Humidity Pressure Visibility Wind Dir Wind Speed Gust Speed Precip Events Conditions
12:51 AM 34.0 °F - 25.0 °F 70% 30.38 in 10.0 mi Calm Calm - N/A   Mostly Cloudy
1:17 AM 33.8 °F 30.8 °F 24.8 °F 70% 30.36 in 10.0 mi East 3.5 mph - N/A   Scattered Clouds
1:28 AM 32.0 °F 28.7 °F 24.8 °F 75% 30.35 in 10.0 mi SE 3.5 mph - N/A   Mostly Cloudy
1:51 AM 30.9 °F 27.5 °F 26.1 °F 82% 30.38 in 10.0 mi SSE 3.5 mph - N/A   Mostly Cloudy
2:17 AM 30.2 °F 26.7 °F 24.8 °F 80% 30.35 in 10.0 mi SSE 3.5 mph - N/A   Scattered Clouds
2:51 AM 30.0 °F 26.5 °F 25.0 °F 82% 30.38 in 10.0 mi SSE 3.5 mph - N/A   Mostly Cloudy
3:51 AM 28.0 °F 21.7 °F 24.1 °F 85% 30.36 in 10.0 mi SE 5.8 mph - N/A   Mostly Cloudy
4:51 AM 28.9 °F 22.8 °F 23.0 °F 78% 30.35 in 10.0 mi SE 5.8 mph - N/A   Mostly Cloudy
5:51 AM 28.9 °F 22.8 °F 23.0 °F 78% 30.35 in 10.0 mi ESE 5.8 mph - N/A   Mostly Cloudy
6:51 AM 28.9 °F 23.9 °F 23.0 °F 78% 30.33 in 10.0 mi ESE 4.6 mph - N/A   Mostly Cloudy
7:51 AM 28.0 °F 20.8 °F 21.9 °F 78% 30.32 in 10.0 mi SE 6.9 mph - N/A   Scattered Clouds
8:51 AM 30.0 °F 24.1 °F 23.0 °F 75% 30.32 in 10.0 mi SSE 5.8 mph - N/A   Mostly Cloudy
9:51 AM 32.0 °F 23.6 °F 24.1 °F 73% 30.28 in 10.0 mi SE 10.4 mph - N/A   Mostly Cloudy
10:51 AM 34.0 °F 26.6 °F 25.0 °F 70% 30.25 in 10.0 mi SSE 9.2 mph - N/A   Mostly Cloudy
11:51 AM 37.0 °F 30.4 °F 26.1 °F 65% 30.21 in 10.0 mi SSE 9.2 mph - N/A   Mostly Cloudy
12:51 PM 39.0 °F 32.8 °F 26.1 °F 60% 30.17 in 10.0 mi SSE 9.2 mph - N/A   Mostly Cloudy
1:51 PM 39.9 °F 35.8 °F 26.1 °F 58% 30.15 in 10.0 mi South 5.8 mph - N/A   Mostly Cloudy
2:51 PM 42.1 °F 38.4 °F 27.0 °F 55% 30.13 in 10.0 mi SSW 5.8 mph - N/A   Mostly Cloudy
3:51 PM 41.0 °F 38.0 °F 27.0 °F 57% 30.12 in 10.0 mi South 4.6 mph - N/A   Mostly Cloudy
4:51 PM 39.0 °F - 27.0 °F 62% 30.12 in 10.0 mi Calm Calm - N/A   Overcast
5:51 PM 39.9 °F - 26.1 °F 58% 30.11 in 10.0 mi Calm Calm - N/A   Overcast
6:51 PM 39.0 °F 36.8 °F 27.0 °F 62% 30.10 in 10.0 mi ESE 3.5 mph - N/A   Overcast
7:51 PM 37.0 °F 33.3 °F 27.0 °F 67% 30.10 in 10.0 mi SSE 4.6 mph - N/A   Overcast
8:51 PM 37.0 °F 32.4 °F 27.0 °F 67% 30.08 in 10.0 mi SSE 5.8 mph - N/A   Overcast
9:51 PM 36.0 °F 31.1 °F 28.9 °F 76% 30.05 in 10.0 mi SSE 5.8 mph - N/A   Overcast
10:51 PM 37.9 °F 35.5 °F 28.9 °F 70% 30.05 in 10.0 mi South 3.5 mph - N/A   Overcast
11:51 PM 36.0 °F 30.3 °F 28.9 °F 76% 30.03 in 10.0 mi SSE 6.9 mph - N/A   Overcast